Weather History for Mandan, ND

Change the Weather History Date:

Wednesday, December 4, 2013

  Actual Average (KBIS) Record (KBIS)
Temperature  
Mean Temperature 4 °F 20 °F  
Max Temperature 8 °F 30 °F 65 °F (1979)
Min Temperature -2 °F 10 °F -20 °F (1875)
Degree Days  
Heating Degree Days 61 45  
Month to date heating degree days 178  
Since 1 July heating degree days 2164  
Cooling Degree Days 0 0  
Month to date cooling degree days 0  
Year to date cooling degree days 520  
Moisture  
Dew Point 1 °F    
Average Humidity 82    
Maximum Humidity 92    
Minimum Humidity 72    
Precipitation  
Precipitation 1.71 in 0.02 in 0.45 in (1926)
Month to date precipitation 0.07  
Year to date precipitation 17.43  
Snow  
Snow 0.00 in 0.30 in 4.40 in (1926)
Month to date snowfall 1.2  
Since 1 July snowfall 12.4  
Snow Depth -    
Sea Level Pressure  
Sea Level Pressure 29.94 in    
Wind  
Wind Speed 20 mph (NNW)    
Max Wind Speed 29 mph    
Max Gust Speed 38 mph    
Visibility 3 miles    
Events Rain , Snow    
T = Trace of Precipitation, MM = Missing Value Source: NWS Daily Summary

Daily Weather History Graph

Daily Weather History Graph

Search for Another Location

Airport:

Trip Planner

Search our weather history database for the weather conditions in past years. The results will help you decide how hot, cold, wet, or windy it might be!

Date:

Astronomy

Dec. 04, 2013 Rise Set
Actual Time 8:11 AM CST 4:56 PM CST
Civil Twilight 7:36 AM CST 5:30 PM CST
Nautical Twilight 6:58 AM CST 6:08 PM CST
Astronomical Twilight 6:22 AM CST 6:45 PM CST
Moon 9:38 AM CST (12/4) 7:11 PM CST (12/4)
Length of Visible Light 9h 53m
Length of Day
8h 44m
Waxing Crescent, 4% of the Moon is Illuminated
Dec 4
Waxing Crescent
Dec 9
First Quarter
Dec 17
Full
Dec 25
Last Quarter
Jan 1
New

Hourly Weather History & Observations

Time (CST) Temp. Windchill Dew Point Humidity Pressure Visibility Wind Dir Wind Speed Gust Speed Precip Events Conditions
12:15 AM 8.6 °F -9.5 °F 5.0 °F 85% 29.95 in 1.2 mi North 17.3 mph 21.9 mph 0.04 in Snow Light Snow
12:35 AM 8.6 °F -10.0 °F 5.0 °F 85% 29.95 in 1.5 mi NNW 18.4 mph - 0.09 in Snow Light Snow
12:55 AM 8.6 °F -8.9 °F 5.0 °F 85% 29.95 in 1.5 mi NNW 16.1 mph - 0.14 in Snow Light Snow
1:15 AM 8.6 °F -9.5 °F 5.0 °F 85% 29.95 in 1.8 mi NNW 17.3 mph - 0.02 in Snow Light Snow
1:35 AM 8.6 °F -8.3 °F 5.0 °F 85% 29.95 in 1.5 mi NNW 15.0 mph - 0.07 in Snow Light Snow
1:55 AM 8.6 °F -8.3 °F 5.0 °F 85% 29.95 in 1.2 mi NNW 15.0 mph 20.7 mph 0.11 in Snow Light Snow
2:15 AM 6.8 °F -11.3 °F 5.0 °F 92% 29.95 in 1.5 mi NNW 16.1 mph - 0.03 in Snow Light Snow
2:35 AM 6.8 °F -11.8 °F 5.0 °F 92% 29.96 in 1.2 mi NNW 17.3 mph - 0.09 in Snow Light Snow
2:55 AM 6.8 °F -11.8 °F 5.0 °F 92% 29.95 in 1.8 mi NNW 17.3 mph - 0.14 in Snow Light Snow
3:15 AM 6.8 °F -12.4 °F 5.0 °F 92% 29.96 in 1.8 mi NNW 18.4 mph - 0.03 in Snow Light Snow
3:35 AM 6.8 °F -13.4 °F 3.2 °F 85% 29.94 in 1.2 mi NNW 20.7 mph 26.5 mph 0.08 in Snow Light Snow
3:55 AM 6.8 °F -12.4 °F 3.2 °F 85% 29.94 in 1.5 mi NNW 18.4 mph - 0.14 in Snow Light Snow
4:15 AM 6.8 °F -12.9 °F 3.2 °F 85% 29.92 in 1.8 mi NNW 19.6 mph - 0.03 in Snow Light Snow
4:35 AM 6.8 °F -12.4 °F 1.4 °F 79% 29.91 in 1.8 mi NNW 18.4 mph - 0.09 in Snow Light Snow
4:55 AM 6.8 °F -11.8 °F 1.4 °F 79% 29.93 in 1.8 mi NNW 17.3 mph - 0.14 in Snow Light Snow
5:15 AM 6.8 °F -12.4 °F 1.4 °F 79% 29.94 in 1.8 mi NNW 18.4 mph 25.3 mph 0.04 in Snow Light Snow
5:35 AM 5.0 °F -14.7 °F 1.4 °F 85% 29.93 in 1.8 mi NNW 18.4 mph 25.3 mph 0.13 in Snow Light Snow
5:55 AM 5.0 °F -16.2 °F 1.4 °F 85% 29.93 in 1.5 mi NNW 21.9 mph 27.6 mph 0.24 in Snow Light Snow
6:15 AM 5.0 °F -15.7 °F 1.4 °F 85% 29.91 in 1.2 mi North 20.7 mph 26.5 mph 0.07 in Snow Light Snow
6:35 AM 5.0 °F -15.7 °F 1.4 °F 85% 29.93 in 1.2 mi NNW 20.7 mph 28.8 mph 0.17 in Snow Light Snow
6:55 AM 5.0 °F -16.7 °F 1.4 °F 85% 29.92 in 1.8 mi NNW 23.0 mph 28.8 mph 0.22 in Snow Light Snow
7:15 AM 5.0 °F -15.2 °F 1.4 °F 85% 29.92 in 1.8 mi NNW 19.6 mph 25.3 mph 0.03 in Snow Light Snow
7:35 AM 5.0 °F -17.1 °F 1.4 °F 85% 29.92 in 2.0 mi NNW 24.2 mph 27.6 mph 0.09 in Snow Light Snow
7:55 AM 5.0 °F -15.2 °F 1.4 °F 85% 29.92 in 2.5 mi NNW 19.6 mph 26.5 mph 0.12 in Snow Light Snow
8:15 AM 5.0 °F -15.7 °F 1.4 °F 85% 29.92 in 2.0 mi North 20.7 mph 24.2 mph 0.02 in Snow Light Snow
8:35 AM 5.0 °F -15.7 °F 1.4 °F 85% 29.93 in 2.0 mi North 20.7 mph 25.3 mph 0.06 in Snow Light Snow
8:55 AM 5.0 °F -15.7 °F 1.4 °F 85% 29.93 in 2.0 mi North 20.7 mph - 0.09 in Snow Light Snow
9:15 AM 5.0 °F -16.2 °F 1.4 °F 85% 29.93 in 2.0 mi NNW 21.9 mph 26.5 mph 0.02 in Snow Light Snow
9:35 AM 5.0 °F -15.7 °F 1.4 °F 85% 29.94 in 2.5 mi NNW 20.7 mph 27.6 mph 0.06 in Snow Light Snow
9:55 AM 5.0 °F -16.2 °F 1.4 °F 85% 29.94 in 2.0 mi NNW 21.9 mph - 0.11 in Snow Light Snow
10:15 AM 6.8 °F -12.4 °F 1.4 °F 79% 29.94 in 3.0 mi NNW 18.4 mph 26.5 mph 0.02 in Snow Light Snow
10:35 AM 6.8 °F -14.7 °F 1.4 °F 79% 29.94 in 3.0 mi NNW 24.2 mph 27.6 mph 0.04 in Snow Light Snow
10:55 AM 6.8 °F -13.4 °F 1.4 °F 79% 29.94 in 3.0 mi NNW 20.7 mph - 0.06 in Snow Light Snow
11:15 AM 6.8 °F -15.1 °F 1.4 °F 79% 29.94 in 2.5 mi NNW 25.3 mph 29.9 mph 0.01 in Snow Light Snow
11:35 AM 6.8 °F -12.9 °F 1.4 °F 79% 29.93 in 5.0 mi NNW 19.6 mph 29.9 mph 0.02 in Rain Light Freezing Rain
11:55 AM 6.8 °F -14.7 °F 1.4 °F 79% 29.92 in 3.0 mi NNW 24.2 mph 33.4 mph 0.02 in Snow Light Snow
12:15 PM 6.8 °F -15.1 °F 1.4 °F 79% 29.92 in 3.0 mi NNW 25.3 mph 31.1 mph N/A Snow Light Snow
12:35 PM 6.8 °F -13.8 °F 1.4 °F 79% 29.91 in 2.0 mi NNW 21.9 mph 31.1 mph 0.02 in Snow Light Snow
12:55 PM 6.8 °F -14.3 °F 1.4 °F 79% 29.91 in 2.0 mi NNW 23.0 mph 31.1 mph 0.05 in Snow Light Snow
1:15 PM 6.8 °F -13.4 °F 1.4 °F 79% 29.92 in 2.0 mi NNW 20.7 mph 31.1 mph 0.01 in Snow Light Snow
1:35 PM 6.8 °F -14.3 °F 3.2 °F 85% 29.91 in 1.8 mi NNW 23.0 mph 27.6 mph 0.05 in Snow Light Snow
1:55 PM 6.8 °F -14.3 °F 3.2 °F 85% 29.90 in 1.8 mi NNW 23.0 mph 28.8 mph 0.07 in Snow Light Snow
2:15 PM 8.6 °F -11.9 °F 5.0 °F 85% 29.90 in 3.0 mi NNW 23.0 mph 28.8 mph N/A Snow Light Snow
2:35 PM 8.6 °F -11.9 °F 3.2 °F 79% 29.91 in 3.0 mi NNW 23.0 mph 27.6 mph 0.01 in Snow Light Snow
2:55 PM 8.6 °F -12.3 °F 5.0 °F 85% 29.91 in 3.0 mi NNW 24.2 mph - 0.01 in Snow Light Snow
3:15 PM 8.6 °F -10.0 °F 5.0 °F 85% 29.91 in 3.0 mi NNW 18.4 mph 27.6 mph N/A Snow Light Snow
3:35 PM 8.6 °F -9.5 °F 3.2 °F 79% 29.92 in 3.0 mi NNW 17.3 mph 26.5 mph N/A Snow Light Snow
3:55 PM 8.6 °F -12.3 °F 3.2 °F 79% 29.92 in 1.5 mi NW 24.2 mph 31.1 mph 0.03 in Snow Light Snow
4:15 PM 8.6 °F -13.1 °F 3.2 °F 79% 29.91 in 2.0 mi NNW 26.5 mph 36.8 mph N/A Snow Light Snow
4:35 PM 6.8 °F -15.5 °F 3.2 °F 85% 29.92 in 2.0 mi NW 26.5 mph 33.4 mph 0.01 in Snow Light Snow
4:55 PM 6.8 °F -15.9 °F 1.4 °F 79% 29.92 in 2.0 mi NW 27.6 mph 36.8 mph 0.01 in Rain Light Freezing Rain
5:15 PM 6.8 °F -16.2 °F 1.4 °F 79% 29.92 in 2.5 mi NW 28.8 mph 34.5 mph N/A Rain Light Freezing Rain
5:35 PM 6.8 °F -14.7 °F 1.4 °F 79% 29.93 in 4.0 mi NW 24.2 mph 33.4 mph N/A Rain Light Freezing Rain
5:55 PM 5.0 °F -16.7 °F -0.4 °F 78% 29.94 in 5.0 mi NW 23.0 mph 28.8 mph N/A Rain Light Freezing Rain
6:15 PM 5.0 °F -17.1 °F -0.4 °F 78% 29.94 in 3.0 mi NW 24.2 mph 31.1 mph N/A Rain Light Freezing Rain
6:35 PM 5.0 °F -17.5 °F -0.4 °F 78% 29.95 in 5.0 mi NW 25.3 mph 33.4 mph N/A   Haze
6:55 PM 5.0 °F -16.2 °F -0.4 °F 78% 29.95 in 3.0 mi NW 21.9 mph 32.2 mph N/A Rain Light Freezing Rain
7:15 PM 5.0 °F -17.1 °F -0.4 °F 78% 29.95 in 2.5 mi NW 24.2 mph 34.5 mph N/A Rain Light Freezing Rain
7:35 PM 5.0 °F -17.9 °F -0.4 °F 78% 29.96 in 3.0 mi NW 26.5 mph 38.0 mph N/A Rain Light Freezing Rain
7:55 PM 5.0 °F -17.1 °F -0.4 °F 78% 29.96 in 5.0 mi NW 24.2 mph 33.4 mph N/A Rain Light Freezing Rain
8:15 PM 5.0 °F -16.2 °F -0.4 °F 78% 29.97 in 10.0 mi NW 21.9 mph 28.8 mph N/A Rain Light Freezing Rain
8:35 PM 3.2 °F -18.1 °F -0.4 °F 85% 29.98 in 5.0 mi WNW 20.7 mph 26.5 mph N/A Rain Light Freezing Rain
8:55 PM 1.4 °F -19.9 °F -0.4 °F 92% 29.99 in 4.0 mi WNW 19.6 mph 27.6 mph N/A Rain Light Freezing Rain
9:15 PM 1.4 °F -21.9 °F -2.2 °F 85% 29.99 in 5.0 mi NW 24.2 mph 28.8 mph N/A Rain Light Freezing Rain
9:35 PM 1.4 °F -21.4 °F -2.2 °F 85% 29.98 in 2.5 mi NW 23.0 mph 32.2 mph N/A Snow Light Snow
9:55 PM 1.4 °F -23.2 °F -2.2 °F 85% 29.99 in 3.0 mi NW 27.6 mph 35.7 mph 0.01 in Rain Light Freezing Rain
10:15 PM -0.4 °F -24.3 °F -4.0 °F 85% 29.99 in 4.0 mi NW 24.2 mph 34.5 mph N/A   Haze
10:35 PM -0.4 °F -23.8 °F -5.8 °F 78% 30.00 in 7.0 mi WNW 23.0 mph 31.1 mph N/A   Overcast
10:55 PM -0.4 °F -24.3 °F -5.8 °F 78% 30.00 in 4.0 mi WNW 24.2 mph 34.5 mph N/A   Haze
11:15 PM -0.4 °F -25.2 °F -7.6 °F 72% 30.00 in 6.0 mi WNW 26.5 mph 32.2 mph N/A   Haze
11:35 PM -0.4 °F -24.3 °F -7.6 °F 72% 30.01 in 6.0 mi WNW 24.2 mph 32.2 mph N/A   Haze
11:55 PM -2.2 °F -27.6 °F -7.6 °F 78% 30.02 in 7.0 mi WNW 26.5 mph 33.4 mph N/A   Scattered Clouds